Zurück zum Katalog

STARLINK-34382

AktivKommunikationVLEO
NORAD 64667·PAYLOAD·🇺🇸 United States

Gestartet Jun 28, 2025 von Cape Canaveral Space Force Station

Loading…

Nächste Überflüge (nächste 24 Stunden)

TLE

AktuellSource: CelesTrak SupGP

Epoche: Sep 14, 2026, 22:49 UTC

1 64667C 25139D   26257.95118056  .00020656  00000+0  61031-3 0  2575
2 64667  53.1592 325.4785 0001214  87.2338 344.9671 15.34378845    12

Verfolge STARLINK-34382 in Echtzeit mit AllMySat

Download on the App Store